Weather History for Berlin, NH

Change the Weather History Date:

Tuesday, December 29, 1998

  Actual Average Record
Temperature  
Mean Temperature 20 °F -  
Max Temperature 32 °F 25 °F 42 °F (1996)
Min Temperature 8 °F 5 °F -15 °F (1997)
Degree Days  
Heating Degree Days 45    
Moisture  
Dew Point 16 °F    
Average Humidity 85    
Maximum Humidity 96    
Minimum Humidity 56    
Precipitation  
Precipitation 0.00 in - - ()
Sea Level Pressure  
Sea Level Pressure 29.90 in    
Wind  
Wind Speed 2 mph (NE)    
Max Wind Speed 16 mph    
Max Gust Speed 16 mph    
Visibility 6 miles    
Events Fog , Snow    
Averages and records for this station are not official NWS values.
T = Trace of Precipitation, MM = Missing Value Source: NWS Daily Summary

Daily Weather History Graph

Daily Weather History Graph

Search for Another Location

Airport:

Trip Planner

Search our weather history database for the weather conditions in past years. The results will help you decide how hot, cold, wet, or windy it might be!

Date:

Astronomy

Dec. 29, 1998 Rise Set
Actual Time 7:21 AM EST 4:12 PM EST
Civil Twilight 6:47 AM EST 4:45 PM EST
Nautical Twilight 6:10 AM EST 5:22 PM EST
Astronomical Twilight 5:35 AM EST 5:58 PM EST
Moon 1:44 PM EST (12/29) 2:59 AM EST (12/29)
Length of Visible Light 9h 58m
Length of Day
8h 51m
Waxing Gibbous, 84% of the Moon is Illuminated
Dec 29
Waxing Gibbous
Jan 1
Full
Jan 9
Last Quarter
Jan 17
New
Jan 24
First Quarter

Hourly Weather History & Observations

Time (EST) Temp. Windchill Dew Point Humidity Pressure Visibility Wind Dir Wind Speed Gust Speed Precip Events Conditions
12:52 AM 14.0 °F - 12.0 °F 92% 30.10 in 7.0 mi Calm Calm - N/A   Clear
1:52 AM 16.0 °F - 14.0 °F 92% 30.12 in 8.0 mi Calm Calm - N/A   Clear
2:52 AM 10.9 °F - 8.1 °F 88% 30.14 in 9.0 mi Calm Calm - N/A   Clear
3:52 AM 9.0 °F - 6.1 °F 88% 30.09 in 8.0 mi Calm Calm - N/A   Clear
4:52 AM 10.0 °F - 7.0 °F 87% 30.06 in 9.0 mi Calm Calm - N/A   Mostly Cloudy
5:52 AM 8.1 °F - 6.1 °F 92% 30.06 in 1.0 mi Calm Calm - N/A   Overcast
5:58 AM 10.4 °F - 8.6 °F 92% 30.00 in 0.2 mi Calm Calm - N/A Fog Light Freezing Fog
6:08 AM 10.4 °F - 8.6 °F 92% 30.00 in 1.0 mi Calm Calm - N/A   Overcast
6:11 AM 10.4 °F - 8.6 °F 92% 30.00 in 2.0 mi Calm Calm - N/A   Overcast
6:21 AM 10.4 °F - 8.6 °F 92% 30.00 in 1.2 mi Calm Calm - N/A   Overcast
6:29 AM 10.4 °F - 8.6 °F 92% 30.00 in 0.8 mi Calm Calm - N/A   Overcast
6:34 AM 10.4 °F - 8.6 °F 92% 30.00 in 1.5 mi Calm Calm - N/A   Overcast
6:44 AM 10.4 °F - 8.6 °F 92% 30.00 in 0.8 mi Calm Calm - N/A   Overcast
6:52 AM 10.0 °F - 7.0 °F 87% 30.07 in 0.8 mi Calm Calm - N/A   Overcast
7:05 AM 8.6 °F - 6.8 °F 92% 30.01 in 1.8 mi Calm Calm - N/A   Mostly Cloudy
7:07 AM 8.6 °F - 6.8 °F 92% 30.01 in 3.0 mi Calm Calm - N/A   Mostly Cloudy
7:14 AM 8.6 °F 2.0 °F 5.0 °F 85% 30.01 in 6.0 mi North 3.5 mph - N/A   Scattered Clouds
7:52 AM 8.1 °F - 5.0 °F 87% 30.09 in 8.0 mi Calm Calm - N/A   Clear
8:52 AM 14.0 °F 6.5 °F 12.0 °F 92% 30.08 in 10.0 mi NW 4.6 mph - N/A   Clear
9:52 AM 18.0 °F 12.7 °F 15.1 °F 88% 30.07 in 10.0 mi NW 3.5 mph - N/A   Clear
10:52 AM 23.0 °F 18.4 °F 18.0 °F 81% 30.02 in 10.0 mi NW 3.5 mph - N/A   Clear
11:52 AM 30.9 °F 21.7 °F 18.0 °F 59% 29.96 in 10.0 mi SSE 11.5 mph 16.1 mph N/A   Clear
12:52 PM 32.0 °F 22.5 °F 18.0 °F 56% 29.92 in 10.0 mi SE 12.7 mph - N/A   Clear
1:52 PM 32.0 °F 21.2 °F 19.9 °F 61% 29.90 in 10.0 mi SSE 16.1 mph - N/A   Clear
2:52 PM 30.9 °F 20.2 °F 19.9 °F 64% 29.88 in 10.0 mi SE 15.0 mph - N/A   Overcast
3:52 PM 30.0 °F 21.1 °F 21.9 °F 72% 29.83 in 9.0 mi SSE 10.4 mph - 0.00 in   Overcast
4:52 PM 30.0 °F 25.2 °F 21.9 °F 72% 29.81 in 10.0 mi SE 4.6 mph - N/A   Overcast
5:12 PM 30.2 °F 23.4 °F 23.0 °F 75% 29.74 in 7.0 mi SSE 6.9 mph - 0.00 in Snow Light Snow
5:52 PM 30.0 °F 24.1 °F 24.1 °F 79% 29.78 in 4.0 mi SE 5.8 mph - 0.00 in Snow Light Snow
6:52 PM 28.9 °F 25.2 °F 24.1 °F 82% 29.76 in 9.0 mi NE 3.5 mph - 0.00 in   Overcast
7:03 PM 28.4 °F 24.6 °F 24.8 °F 86% 29.69 in 2.0 mi NE 3.5 mph - 0.00 in Snow Light Snow
7:06 PM 28.4 °F 24.6 °F 24.8 °F 86% 29.69 in 1.2 mi NE 3.5 mph - 0.00 in Snow Light Snow
7:33 PM 28.4 °F - 24.8 °F 86% 29.67 in 1.8 mi Calm Calm - 0.00 in Snow Light Snow
7:41 PM 28.4 °F - 24.8 °F 86% 29.66 in 2.0 mi Calm Calm - 0.00 in Snow Light Snow
7:52 PM 28.0 °F - 25.0 °F 88% 29.72 in 2.5 mi Calm Calm - 0.00 in Snow Light Snow
8:37 PM 28.4 °F 24.6 °F 26.6 °F 93% 29.61 in 3.0 mi NW 3.5 mph - 0.00 in Snow Light Snow
8:52 PM 28.0 °F 24.2 °F 26.1 °F 92% 29.66 in 4.0 mi NW 3.5 mph - 0.00 in Snow Light Snow
9:52 PM 28.0 °F 24.2 °F 26.1 °F 92% 29.61 in 6.0 mi NNW 3.5 mph - 0.00 in Snow Light Snow
10:52 PM 27.0 °F 23.0 °F 26.1 °F 96% 29.56 in 9.0 mi NW 3.5 mph - 0.00 in   Overcast
11:52 PM 27.0 °F - 25.0 °F 92% 29.52 in 10.0 mi Calm Calm - N/A   Overcast